ARIANE 44LP DEB, 26812

Orbit data source: Space-Track

ARIANE 44LP DEB, 26812 is space debris in HEO originally from a launch on Sun, 11 Dec 1988 UTC launched from the French Guiana (FRGUI). Debris objects in space refer to the collection of defunct objects orbiting the Earth. Examples of debris include non-operational satellites, rocket bodies, and fragments generated from explosions, collisions, or faulty payload assembly.

Loading next visibility...
Identifier
26812, 1988-109P
Orbit
HEO
Last TLE update
22 hours ago
Origin
Manufacturer
Unknown
Mission
Spacecraft
Bus & Motor
Unknown
Mass
Unknown
Launch date (UTC)
1988-12-11 (37 years ago)
Launch vehicle
Unknown
Launch site
French Guiana (FRGUI)
Object type
Payload
Rocket body
Debris
Shape & HBR
Unknown
Radar Cross Section
Medium (>0.1 m² and <1 m²)

Expand to show TLE details & history

TLE from 22 hours ago
0 ARIANE 44LP DEB
1 26812U 88109P   25183.56918470 -.00000166  00000-0  00000-0 0  9998
2 26812   6.8167 288.8344 7020430 341.4219 306.8061  2.21680156222434
Epoch: 2025-07-02T13:39Z
TLE epoch observation values (Epoch: 2025-07-02T13:39:37.558Z)
Latitude
-2.80985°
Longitude
7.3201°
Altitude
19,511.008 km
Speed
3.84 km/s
True Right ascension
08h 52m 17s
True Declination
-2° 48' 19"
Sunlit
Object was in daylight at epoch
Visualization orbit readout
Latitude
-4.15707°
Longitude
20.19502°
Altitude
14,479.758 km
Speed
4.709 km/s
Apparent Right ascension
10h 04m 19s
Apparent Declination
-12° 27' 37"
Sunlit
Object is in daylight
Visualization observer readout
Local Sidereal Time
23:33:34
Azimuth
41.833° NE
Elevation
-56.231°
Doppler factor
1
Orbital elements
Apogee altitude
35,918.458 km
Perigee altitude
1,026.239 km
Semi-major axis
24,850.486 km
Eccentricity
0.70204
Inclination
6.8167°
RAAN
288.8344°
Arg. of periapsis
341.4219°
True anomaly
Unknown
Mean anomaly
306.8061°
Eccentric anomaly
Unknown
Mean motion
0.55404 °/min
Orbital period
649.77 mins
BSTAR
0
Loading maneuver chart data...
Loading SW <> Apogee altitude chart data...
Loading historical data...
Loading historical data...
Loading historical data...
Loading historical data...
Loading historical data...
Loading historical data...
Loading historical data...

ARIANE 44LP DEB Visibility forecast

Observer location: undefined°, undefined°

Span
Click to sort rows by Start time (UTC) header in descending order
Start Az.
Max El. time (UTC)
Max El. Az.
Max El.
End time (UTC)
End Az.
598 mins2025-07-03 13:17:00.791Z226.268° WSW2025-07-03 17:33:00.791Z172.943° S36.03°2025-07-03 23:15:00.791Z158.821° S
56 mins2025-07-04 10:51:00.791Z191.066° SSW2025-07-04 11:08:00.791Z143.739° SSE23.985°2025-07-04 11:47:00.791Z118.515° SE
|